Location: Marse
(42.1502°N, 110.9866°W)
Time: 01:57:11
(UTC+00:00)

QB50P2 - Pass Details

Date: 01 July 2022
Orbit: 590 x 605 km, 97.9° (Epoch: 15 August)

Event Time Altitude Azimuth Distance (km) Brightness Sun altitude
Rises 08:09:37 0° 23° (NNE) 2,859 ? -24.0°
Reaches altitude 10° 08:12:00 10° 33° (NNE) 1,954 ? -24.0°
Maximum altitude 08:15:48 31° 97° (E) 1,057 ? -23.8°
Enters shadow 08:16:02 31° 104° (ESE) 1,062 ? -23.8°
